Hourly Data Report for October 19, 2019

All times are specified in Local Standard Time (LST). Add 1 hour to adjust for Daylight Saving Time where and when it is observed.

EUREKA CLIMATE
NUNAVUT
Current Station Operator: ECCC - MSC

79°59'21.000" N
85°56'02.000" W
10.00 m
2401199
71613
NEK

Download Data

Hourly Data (October 2019)
Hourly Data Report for October 19, 2019
TIME Temp Definition
°C
Dew Point Definition
°C
Rel Hum Definition
%
Wind Dir Definition
10's deg

Wind Spd Definition
km/h
Visibility Definition
km
Stn Press Definition
kPa
Hmdx Definition


Wind Chill Definition


Weather Definition


00:00 -19.1 -21.1 84 2 11   101.88   -27 LegendNANA
01:00 -19.8 -21.8 84 2 10   101.90   -27 LegendNANA
02:00 -20.2 -22.2 84 1 16   101.92   -30 LegendNANA
03:00 -19.9 -21.9 84 1 16   101.94   -29 LegendNANA
04:00 -20.9 -23.0 83 2 13   101.98   -30 LegendNANA
05:00 -21.0 -23.2 82 2 13   101.99   -30 LegendNANA
06:00 -20.7 -22.6 85 4 9   102.03   -28 LegendNANA
07:00 -21.2 -23.0 85 2 8   102.07   -28 LegendNANA
08:00 -18.7 -20.5 86 8 5   102.09   -23 LegendNANA
09:00 -19.5 -21.5 84 8 3   102.10   -22 LegendNANA
10:00 -17.9 -19.6 87 10 9   102.12   -24 LegendNANA
11:00 -17.8 -19.7 85 3 5   102.15   -22 LegendNANA
12:00 -17.1 -18.7 88 10 7   102.17   -22 LegendNANA
13:00 -16.5 -18.2 86 4 5   102.21   -20 LegendNANA
14:00 -16.1 -17.9 86 2 6   102.25   -21 LegendNANA
15:00 -15.1 -16.8 86 5 2   102.27   -17 LegendNANA
16:00 -15.1 -17.1 84 2 4   102.32   -18 LegendNANA
17:00 -15.1 -17.2 84 2 6   102.36   -19 LegendNANA
18:00 -15.5 -17.5 85 1 9   102.39   -21 LegendNANA
19:00 -15.8 -17.7 86 4 2   102.43   -17 LegendNANA
20:00 -16.0 -17.7 87 2 3   102.46   -18 LegendNANA
21:00 -15.6 -17.5 85 12 5   102.48   -19 LegendNANA
22:00 -15.2 -16.6 89 8 3   102.50   -17 LegendNANA
23:00 -15.3 -16.8 89 15 4   102.54   -18 LegendNANA

Notes on Data Quality.

Legend

  • E = Estimated
  • M = Missing
  • NA = Not Available
Date modified: